TimeEDT,TemperatureF,Dew PointF,Humidity,Sea Level PressureIn,VisibilityMPH,Wind Direction,Wind SpeedMPH,Gust SpeedMPH,PrecipitationIn,Events,Conditions,WindDirDegrees,DateUTC
12:53 AM,73.0,73.0,100,30.04,10.0,SSE,3.5,-,N/A,,Mostly Cloudy,160,2012-10-03 04:53:00
1:53 AM,73.0,73.0,100,30.04,10.0,South,5.8,-,N/A,,Mostly Cloudy,170,2012-10-03 05:53:00
2:53 AM,73.0,73.0,100,30.04,10.0,South,3.5,-,N/A,,Mostly Cloudy,180,2012-10-03 06:53:00
3:53 AM,73.9,73.0,97,30.05,10.0,Calm,Calm,-,N/A,,Mostly Cloudy,0,2012-10-03 07:53:00
4:49 AM,73.4,73.4,100,30.06,10.0,SSE,5.8,-,N/A,,Mostly Cloudy,160,2012-10-03 08:49:00
4:53 AM,73.9,73.0,97,30.06,10.0,South,5.8,-,N/A,,Mostly Cloudy,170,2012-10-03 08:53:00
5:53 AM,75.0,73.9,96,30.07,10.0,South,3.5,-,0.01,,Overcast,170,2012-10-03 09:53:00
6:53 AM,75.0,75.0,100,30.09,10.0,Calm,Calm,-,N/A,,Mostly Cloudy,0,2012-10-03 10:53:00
7:53 AM,75.0,75.0,100,30.09,10.0,South,4.6,-,0.00,,Mostly Cloudy,170,2012-10-03 11:53:00
8:53 AM,75.9,75.0,97,30.10,10.0,SE,4.6,-,N/A,,Mostly Cloudy,140,2012-10-03 12:53:00
9:53 AM,77.0,75.0,94,30.13,10.0,SSE,5.8,-,N/A,,Overcast,150,2012-10-03 13:53:00
10:38 AM,78.8,75.2,89,30.14,10.0,SSE,4.6,-,N/A,,Mostly Cloudy,160,2012-10-03 14:38:00
10:50 AM,78.8,75.2,89,30.13,10.0,Variable,5.8,-,N/A,,Mostly Cloudy,0,2012-10-03 14:50:00
10:53 AM,79.0,75.9,90,30.13,10.0,South,5.8,-,N/A,,Mostly Cloudy,190,2012-10-03 14:53:00
11:53 AM,82.0,75.9,82,30.13,10.0,SSE,6.9,-,N/A,,Mostly Cloudy,160,2012-10-03 15:53:00
12:53 PM,86.0,75.9,72,30.11,10.0,South,8.1,-,N/A,,Mostly Cloudy,170,2012-10-03 16:53:00
1:53 PM,87.1,75.0,67,30.10,10.0,South,11.5,16.1,N/A,,Mostly Cloudy,170,2012-10-03 17:53:00
2:53 PM,89.1,73.9,61,30.08,10.0,South,8.1,-,N/A,,Mostly Cloudy,180,2012-10-03 18:53:00
3:53 PM,91.0,75.0,59,30.08,10.0,SW,11.5,-,N/A,,Mostly Cloudy,220,2012-10-03 19:53:00
4:53 PM,79.0,72.0,79,30.11,10.0,WNW,16.1,26.5,0.00,Rain,Light Rain,290,2012-10-03 20:53:00
5:00 PM,78.8,71.6,78,30.11,10.0,WNW,18.4,25.3,N/A,Rain,Light Rain,290,2012-10-03 21:00:00
5:32 PM,78.8,71.6,78,30.11,10.0,West,11.5,-,0.00,Thunderstorm,Thunderstorm,270,2012-10-03 21:32:00
5:53 PM,77.0,73.0,88,30.12,5.0,WSW,8.1,-,0.08,Rain-Thunderstorm,Heavy Thunderstorms and Rain,240,2012-10-03 21:53:00
6:21 PM,75.2,73.4,94,30.12,10.0,West,9.2,-,0.08,Rain,Light Rain,270,2012-10-03 22:21:00
6:53 PM,75.9,73.9,94,30.13,10.0,West,5.8,-,0.08,,Overcast,270,2012-10-03 22:53:00
7:53 PM,75.9,73.9,94,30.16,10.0,Calm,Calm,-,0.03,Rain,Light Rain,0,2012-10-03 23:53:00
8:18 PM,75.2,73.4,94,30.16,10.0,Calm,Calm,-,0.00,Rain,Light Rain,0,2012-10-04 00:18:00
8:30 PM,75.2,73.4,94,30.16,10.0,Calm,Calm,-,0.00,,Overcast,0,2012-10-04 00:30:00
8:53 PM,75.9,73.9,94,30.16,10.0,NE,4.6,-,0.00,,Overcast,40,2012-10-04 00:53:00
9:53 PM,75.0,73.9,96,30.17,10.0,ENE,6.9,-,N/A,,Mostly Cloudy,70,2012-10-04 01:53:00
10:53 PM,75.0,73.0,94,30.19,10.0,East,3.5,-,N/A,,Mostly Cloudy,80,2012-10-04 02:53:00
11:53 PM,75.0,73.0,94,30.19,10.0,NE,4.6,-,N/A,,Mostly Cloudy,40,2012-10-04 03:53:00